Washington, ME (04574)

10:09 PM EDT on May 25, 2017 (GMT -0400)
North Waldoboro | | Change Station
Active Advisory: Coastal Flood Advisory Active Notice: Coastal Flood Advisory

Elev 200 ft 44.18 °N, 69.38 °W | Updated 40 seconds ago

Rain
Rain
51.9 °F
Feels Like 51.9 °F
N
4.0
Wind Variable Wind from ENE

Today
High -- | Low -- °F
--% Chance of Precip.
Yesterday
High -- | Low -- °F
Precip. -- in
Pressure 29.85 in
Visibility 3.0 miles
Clouds Mostly Cloudy 600 ft
Overcast 1100 ft
Dew Point 50 °F
Humidity 95%
Rainfall 0.05 in
Snow Depth Not available.
5:01 AM 8:08 PM
New Moon, 0% visible
METAR KRKD 260156Z AUTO 07012G18KT 3SM -RA BR BKN006 OVC011 10/09 A2984 RMK AO2 CIG 004V008 SLP106 P0004 T01000094
Pressure 29.85 in
Visibility 3.0 miles
Clouds Mostly Cloudy 600 ft
Overcast 1100 ft
Dew Point 50 °F
Humidity 95%
Rainfall 0.05 in
Snow Depth Not available.
5:01 AM 8:08 PM
New Moon, 0% visible
METAR KRKD 260156Z AUTO 07012G18KT 3SM -RA BR BKN006 OVC011 10/09 A2984 RMK AO2 CIG 004V008 SLP106 P0004 T01000094

Get Your Daily Forecast Email!

Thanks for signing up!

Be on the lookout for a verification email in your inbox.

You'll start receiving severe weather alerts in your inbox..

×

10-Day Weather Forecast

Almanac

Astronomy

May. 25, 2017 Rise Set
Actual Time
Civil Twilight
Nautical Twilight
Astronomical Twilight
Moon
Length of Visible Light
Length of Day
Tomorrow will be .
, % of the Moon is Illuminated

Today's Extremes

State Highs State Lows

Community

WunderPhotos

Category 6

Welcome to Category 6. This is the collective home for Weather Underground's featured writeups by Dr. Jeff Masters (right), Bob Henson (left), Chris Burt, and other regular contributors.

Nearby

Air Quality

  Air Quality AQ Index Pollutant
Not available.

Snow Depth

Station Depth Elevation

Earthquake Activity

City Distance Mag. Time & Date
Minimum magnitude displayed is 2.5.

Coastal Water Temperatures

Place Temperature

Stations

Nearby Weather Stations

Station Location Temp. Windchill Dew Point Humidity Wind Precip. Elev Updated Type
                   

Watches & Warnings

Coastal Flood Advisory
Issued: 9:41 PM EDT May. 25, 2017 – National Weather Service

... Coastal flood advisory remains in effect until 1 am EDT
Friday...

* location... midcoast and southwest coast of Maine and New
Hampshire.

* Timing... between 11 PM Thursday night and 1 am Friday morning.

* Impacts... some splash-over with pockets of coastal flooding.


Precautionary/preparedness actions...

A coastal flood advisory indicates that onshore winds and tides
will combine to generate flooding of low areas along the shore.


Jc